{"data":{"norad_id":68854,"intl_designator":"2026-094R","name":"STARLINK-37463","alt_names":[],"object_type":"PAYLOAD","status":"ACTIVE","operator":null,"country":"US","launch_date":"2026-04-26","launch_site_code":"AFWTR","launch_vehicle":null,"mission":null,"orbit_class":"UNKNOWN","rcs_meters":null,"size_class":null,"mass_kg":null,"dimensions":null,"purposes":["comms"],"wikipedia_slug":null,"has_3d_model":false,"image_url":null,"decayed_at":null,"tle_current":{"epoch":"2026-09-19T06:57:58.618656Z","epoch_age_seconds":120091,"freshness":"FRESH","line1":"1 68854U 26094R   26262.29026179  .00016760  00000+0  52021-3 0  9998","line2":"2 68854  97.2818 275.4512 0001299  96.8159 263.3232 15.33450890 22477","mean_motion":15.3345089,"eccentricity":0.0001299,"inclination_deg":97.2818,"raan_deg":275.4512,"arg_perigee_deg":96.8159,"mean_anomaly_deg":263.3232,"bstar":0.00052021,"rev_number":2247,"period_min":93.905843962176,"perigee_km":464.63665825995,"apogee_km":466.41464181643,"semimajor_km":6843.6626500382,"source":"CELESTRAK","updated_at":"2026-09-20T09:00:44.043193Z"}}}